Home   Weather   Biloxi   Past weeks
Flag for USA

Past Weather in Biloxi, Mississippi, USA — Yesterday and Last 2 Weeks

Now
81 °F

Sunny.


Feels Like: 88 °F
Forecast: 89 / 80 °F
Wind: No wind

Location: Keesler Air Force Base / Biloxi

Current Time: Jul 19, 2019 at 8:08:37 am

Latest Report: Jul 19, 2019 at 6:56 am


Visibility: 10 mi

Pressure: 30.07 "Hg

Humidity: 89%

Dew Point: 77 °F

Location of BiloxiLocation

Past Weather in Biloxi — Graph

°F

Biloxi Temperature Yesterday

Maximum temperature yesterday: 90 °F (at 2:56 pm)
Minimum temperature yesterday: 79 °F (at 5:56 am)
Average temperature yesterday: 85 °F

High & Low Weather Summary for the Past Weeks

 TemperatureHumidityPressure
High99 °F (Jul 6, 2:56 pm)96% (Jul 11, 5:56 am)30.15 "Hg (Jul 11, 5:56 am)
Low75 °F (Jul 13, 5:56 am)37% (Jul 7, 1:56 pm)29.75 "Hg (Jul 12, 2:56 am)
Average84 °F78%29.97 "Hg
* Reported Jul 4 6:56 am — Jul 19 6:56 am, Biloxi. Weather by CustomWeather, © 2019

Note: Actual official high and low records may vary slightly from our data, if they occured in-between our weather recording intervals... More about our weather records

Advertising

Biloxi Weather History for the Previous 24 Hours

Scroll right to see more
 ConditionsComfort  
Time TempWeatherWind HumidityBarometerVisibility
6:56 am
Fri, Jul 19
81 °FSunny.No wind89%30.07 "Hg10 mi
5:56 am80 °FClear.No wind87%30.04 "Hg10 mi
4:56 am81 °FClear.No wind86%30.02 "Hg10 mi
3:56 am81 °FClear.No wind86%30.02 "Hg10 mi
2:56 am83 °FClear.3 mph82%30.02 "Hg10 mi
1:56 am83 °FClear.6 mph82%30.04 "Hg10 mi
12:56 am83 °FPassing clouds.5 mph81%30.05 "Hg10 mi
11:56 pm
Thu, Jul 18
83 °FClear.9 mph79%30.06 "Hg10 mi
10:56 pm84 °FClear.7 mph79%30.07 "Hg10 mi
9:56 pm84 °FClear.6 mph79%30.05 "Hg10 mi
8:56 pm85 °FClear.9 mph77%30.05 "Hg10 mi
6:56 pm87 °FSunny.12 mph70%30.03 "Hg10 mi
5:56 pm88 °FSunny.10 mph65%30.03 "Hg10 mi
4:56 pm89 °FSunny.12 mph65%30.03 "Hg10 mi
3:56 pm90 °FSunny.13 mph65%30.05 "Hg10 mi
2:56 pm90 °FSunny.12 mph66%30.07 "Hg10 mi
1:56 pm90 °FSunny.9 mph65%30.08 "Hg10 mi
12:56 pm89 °FPassing clouds.12 mph65%30.09 "Hg10 mi
11:56 am89 °FSunny.12 mph69%30.10 "Hg10 mi
10:56 am88 °FScattered clouds.7 mph70%30.10 "Hg10 mi
9:56 am88 °FSunny.No wind67%30.09 "Hg10 mi
8:56 am85 °FSunny.No wind76%30.10 "Hg10 mi
Weather by CustomWeather, © 2019

See weather overview